| time (UTC) | temp F | wind direction | speed MPH | gust MPH | rain 1hr in | rain 24hr in | rain mn in | humidity % | barometer mb |
| 20260905120552 | 46 | 129 | 0.0 | 0.0 | 0.00 | 0.04 | 0.00 | 87 | 1019.5 |
| 20260905115552 | 46 | 129 | 0.0 | 0.0 | 0.00 | 0.04 | 0.00 | 87 | 1019.4 |
| 20260905114552 | 46 | 129 | 0.0 | 0.0 | 0.00 | 0.04 | 0.00 | 87 | 1019.4 |
| 20260905113552 | 46 | 129 | 0.0 | 0.0 | 0.00 | 0.04 | 0.00 | 87 | 1019.3 |
| 20260905112552 | 47 | 129 | 0.0 | 1.0 | 0.00 | 0.04 | 0.00 | 87 | 1019.4 |
| 20260905111552 | 47 | 129 | 0.0 | 1.0 | 0.00 | 0.04 | 0.00 | 87 | 1019.4 |
| 20260905083550 | 51 | 129 | 0.0 | 1.0 | 0.00 | 0.06 | 0.00 | 86 | 1018.9 |
| 20260905082551 | 51 | 129 | 0.0 | 2.0 | 0.00 | 0.06 | 0.00 | 86 | 1018.7 |
| 20260905025547 | 53 | 324 | 0.0 | 2.0 | 0.00 | 0.29 | 0.18 | 77 | 1017.5 |
| 20260905024547 | 53 | 324 | 2.0 | 2.0 | 0.00 | 0.29 | 0.18 | 74 | 1017.4 |
| 20260905023547 | 54 | 324 | 0.0 | 0.0 | 0.00 | 0.29 | 0.18 | 74 | 1017.5 |
| 20260905022547 | 55 | 324 | 0.0 | 0.0 | 0.00 | 0.29 | 0.18 | 73 | 1017.5 |
| 20260904234546 | 58 | 329 | 1.0 | 3.0 | 0.00 | 0.29 | 0.18 | 62 | 1018.1 |
| 20260904233545 | 58 | 329 | 1.0 | 3.0 | 0.00 | 0.29 | 0.18 | 62 | 1018.1 |
| 20260904232545 | 58 | 329 | 0.0 | 4.0 | 0.00 | 0.29 | 0.18 | 64 | 1017.9 |
| 20260904231545 | 58 | 16 | 3.0 | 4.0 | 0.00 | 0.29 | 0.18 | 68 | 1018.0 |
| 20260904230605 | 57 | 16 | 3.0 | 3.0 | 0.00 | 0.29 | 0.18 | 70 | 1018.3 |
| 20260904225545 | 56 | 16 | 3.0 | 4.0 | 0.00 | 0.29 | 0.18 | 69 | 1018.4 |
| 20260904224545 | 56 | 16 | 1.0 | 5.0 | 0.01 | 0.29 | 0.18 | 70 | 1018.4 |
| 20260904223545 | 56 | 74 | 2.0 | 3.0 | 0.01 | 0.29 | 0.18 | 72 | 1018.4 |
| 20260904222545 | 54 | 80 | 2.0 | 3.0 | 0.01 | 0.29 | 0.18 | 77 | 1018.4 |
| 20260904221545 | 54 | 81 | 0.0 | 3.0 | 0.02 | 0.29 | 0.18 | 75 | 1018.5 |
| 20260904220544 | 53 | 81 | 1.0 | 3.0 | 0.02 | 0.29 | 0.18 | 76 | 1018.6 |
| 20260904215545 | 53 | 81 | 0.0 | 2.0 | 0.03 | 0.29 | 0.18 | 77 | 1018.7 |
| 20260904214605 | 53 | 81 | 2.0 | 2.0 | 0.03 | 0.29 | 0.18 | 78 | 1018.8 |
| 20260904213545 | 53 | 81 | 1.0 | 3.0 | 0.02 | 0.28 | 0.17 | 77 | 1018.7 |
| 20260904212545 | 53 | 81 | 1.0 | 3.0 | 0.02 | 0.28 | 0.17 | 78 | 1018.5 |
| 20260904211544 | 53 | 81 | 0.0 | 3.0 | 0.03 | 0.28 | 0.17 | 78 | 1018.6 |
| 20260904210544 | 53 | 81 | 0.0 | 3.0 | 0.02 | 0.27 | 0.16 | 76 | 1018.5 |
| 20260904205544 | 54 | 81 | 3.0 | 3.0 | 0.02 | 0.27 | 0.16 | 75 | 1018.3 |
| 20260904204544 | 54 | 81 | 2.0 | 5.0 | 0.01 | 0.26 | 0.15 | 75 | 1018.5 |
| 20260904203544 | 54 | 81 | 3.0 | 3.0 | 0.01 | 0.26 | 0.15 | 74 | 1018.6 |
| 20260904202544 | 54 | 81 | 1.0 | 3.0 | 0.01 | 0.26 | 0.15 | 73 | 1018.7 |
| 20260904201544 | 55 | 73 | 3.0 | 6.0 | 0.01 | 0.26 | 0.15 | 72 | 1018.1 |
| 20260904200544 | 55 | 39 | 3.0 | 4.0 | 0.00 | 0.25 | 0.14 | 67 | 1018.2 |
| 20260904195544 | 55 | 35 | 4.0 | 7.0 | 0.00 | 0.25 | 0.14 | 69 | 1018.1 |